Weather History for Goodland, KS

Change the Weather History Date:

Wednesday, July 23, 2014

  Actual Average Record
Temperature  
Mean Temperature 79 °F 76 °F  
Max Temperature 91 °F 90 °F 110 °F (1936)
Min Temperature 67 °F 62 °F 51 °F (1950)
Degree Days  
Heating Degree Days 0 0  
Month to date heating degree days 13 0  
Since 1 June heating degree days 51 37  
Since 1 July heating degree days 13 0  
Cooling Degree Days 14 11  
Month to date cooling degree days 222 246  
Year to date cooling degree days 417 466  
Since 1 June cooling degree days 371 425  
Growing Degree Days 28 (Base 50)    
Moisture  
Dew Point 64 °F    
Average Humidity 67    
Maximum Humidity 97    
Minimum Humidity 37    
Precipitation  
Precipitation 0.00 in 0.11 in 2.11 in (1980)
Month to date precipitation 1.73 2.57  
Year to date precipitation 10.80 12.30  
Snow  
Snow 0.00 in 0.00 in - ()
Month to date snowfall 0.0 0.0  
Since 1 June snowfall 0.0 0.0  
Since 1 July snowfall 0.0 0.0  
Snow Depth 0.00 in    
Sea Level Pressure  
Sea Level Pressure 30.17 in    
Wind  
Wind Speed 14 mph (ESE)    
Max Wind Speed 29 mph    
Max Gust Speed 36 mph    
Visibility 9 miles    
Events      
T = Trace of Precipitation, MM = Missing Value Source: NWS Daily Summary

Daily Weather History Graph

Daily Weather History Graph

Search for Another Location

Airport:

Trip Planner

Search our weather history database for the weather conditions in past years. The results will help you decide how hot, cold, wet, or windy it might be!

Date:

Astronomy

Jul. 23, 2014 Rise Set
Actual Time 5:38 AM MDT 8:07 PM MDT
Civil Twilight 5:08 AM MDT 8:37 PM MDT
Nautical Twilight 4:29 AM MDT 9:15 PM MDT
Astronomical Twilight 3:47 AM MDT 9:58 PM MDT
Moon 2:59 AM MDT (7/23) 5:37 PM MDT (7/23)
Length of Visible Light 15h 29m
Length of Day
14h 28m
Waning Crescent, 9% of the Moon is Illuminated
Jul 23
Waning Crescent
Jul 26
New
Aug 3
First Quarter
Aug 10
Full
Aug 17
Last Quarter

Hourly Weather History & Observations

Time (MDT) Temp. Heat Index Dew Point Humidity Pressure Visibility Wind Dir Wind Speed Gust Speed Precip Events Conditions
12:53 AM 72.0 °F - 68.0 °F 87% 30.13 in 10.0 mi East 10.4 mph - N/A   Clear
1:53 AM 70.0 °F - 68.0 °F 93% 30.13 in 10.0 mi East 10.4 mph - N/A   Clear
2:53 AM 68.0 °F - 66.0 °F 93% 30.09 in 9.0 mi East 5.8 mph - N/A   Clear
3:53 AM 68.0 °F - 66.9 °F 96% 30.12 in 10.0 mi East 13.8 mph - N/A   Clear
4:23 AM 66.9 °F - 66.0 °F 97% 30.28 in 10.0 mi East 11.5 mph - N/A   Partly Cloudy
4:38 AM 68.0 °F - 66.9 °F 96% 30.29 in 10.0 mi East 12.7 mph - N/A   Mostly Cloudy
4:53 AM 68.0 °F - 66.9 °F 96% 30.14 in 9.0 mi East 18.4 mph - N/A   Overcast
5:01 AM 68.0 °F - 66.9 °F 96% 30.30 in 8.0 mi East 17.3 mph - N/A   Overcast
5:53 AM 68.0 °F - 66.9 °F 96% 30.16 in 6.0 mi East 12.7 mph - N/A   Overcast
6:53 AM 68.0 °F - 66.9 °F 96% 30.14 in 3.0 mi SE 13.8 mph - N/A   Overcast
7:53 AM 69.1 °F - 66.9 °F 93% 30.17 in 7.0 mi SE 15.0 mph - N/A   Overcast
8:09 AM 70.0 °F - 66.9 °F 90% 30.31 in 8.0 mi ESE 11.5 mph - N/A   Overcast
8:53 AM 72.0 °F - 66.9 °F 84% 30.18 in 10.0 mi SE 10.4 mph - N/A   Overcast
9:21 AM 75.0 °F - 68.0 °F 79% 30.32 in 10.0 mi SSE 8.1 mph - N/A   Partly Cloudy
9:43 AM 75.0 °F - 66.9 °F 76% 30.36 in 10.0 mi NE 11.5 mph - N/A   Mostly Cloudy
9:53 AM 73.0 °F - 66.9 °F 81% 30.25 in 10.0 mi NNE 25.3 mph 32.2 mph N/A   Mostly Cloudy
10:04 AM 69.1 °F - 66.0 °F 90% 30.38 in 6.0 mi NE 23.0 mph 33.4 mph N/A   Overcast
10:53 AM 66.9 °F - 63.0 °F 87% 30.27 in 10.0 mi East 21.9 mph 27.6 mph N/A   Overcast
11:15 AM 72.0 °F - 64.0 °F 76% 30.36 in 10.0 mi East 20.7 mph 29.9 mph N/A   Overcast
11:53 AM 79.0 °F - 61.0 °F 54% 30.22 in 10.0 mi East 26.5 mph 35.7 mph N/A   Scattered Clouds
12:53 PM 84.0 °F 84.4 °F 61.0 °F 46% 30.18 in 10.0 mi SE 16.1 mph - N/A   Clear
1:53 PM 87.1 °F 86.7 °F 60.1 °F 40% 30.14 in 10.0 mi SE 16.1 mph 21.9 mph N/A   Clear
2:53 PM 90.0 °F 90.0 °F 61.0 °F 38% 30.10 in 10.0 mi SSE 19.6 mph 25.3 mph N/A   Clear
3:53 PM 90.0 °F 89.7 °F 60.1 °F 37% 30.07 in 10.0 mi SSE 16.1 mph 24.2 mph N/A   Clear
4:53 PM 90.0 °F 89.1 °F 59.0 °F 35% 30.05 in 10.0 mi South 16.1 mph - N/A   Clear
5:53 PM 90.0 °F 89.7 °F 60.1 °F 37% 30.04 in 10.0 mi South 13.8 mph - N/A   Clear
6:53 PM 84.0 °F 84.5 °F 62.1 °F 47% 30.05 in 9.0 mi South 8.1 mph - N/A   Clear
7:53 PM 79.0 °F - 63.0 °F 58% 30.05 in 10.0 mi SE 6.9 mph - N/A   Clear
8:53 PM 77.0 °F - 63.0 °F 62% 30.06 in 10.0 mi SSE 10.4 mph - N/A   Clear
9:53 PM 77.0 °F - 64.0 °F 64% 30.07 in 10.0 mi SSE 12.7 mph - N/A   Clear
10:53 PM 73.0 °F - 64.0 °F 73% 30.09 in 10.0 mi SE 9.2 mph - N/A   Clear
11:53 PM 70.0 °F - 64.9 °F 84% 30.06 in 10.0 mi SSE 11.5 mph - N/A   Clear